Weather History for Kars, Turkey

Change the Weather History Date:

Friday, April 4, 2014

  Actual Average Record
Temperature  
Mean Temperature 29 °F -  
Max Temperature 46 °F 53 °F - ()
Min Temperature 12 °F 33 °F - ()
Degree Days  
Heating Degree Days 36    
Moisture  
Dew Point 16 °F    
Average Humidity 66    
Maximum Humidity 100    
Minimum Humidity 6    
Precipitation  
Precipitation 0.00 in 0.06 in - ()
Sea Level Pressure  
Sea Level Pressure 30.03 in    
Wind  
Wind Speed 4 mph ()    
Max Wind Speed 16 mph    
Max Gust Speed -    
Visibility 5.6 miles    
Events Fog    
T = Trace of Precipitation, MM = Missing Value Source: Averaged Metar Reports

Daily Weather History Graph

Daily Weather History Graph

Search for Another Location

Airport:

Trip Planner

Search our weather history database for the weather conditions in past years. The results will help you decide how hot, cold, wet, or windy it might be!

Date:

Astronomy

Apr. 04, 2014 Rise Set
Actual Time 5:47 AM EEST 6:35 PM EEST
Civil Twilight 5:19 AM EEST 7:02 PM EEST
Nautical Twilight 4:46 AM EEST 7:35 PM EEST
Astronomical Twilight 4:12 AM EEST 8:09 PM EEST
Moon 8:45 AM EEST (4/4) 11:28 PM EEST (4/4)
Length of Visible Light 13h 43m
Length of Day
12h 48m
Waxing Crescent, 23% of the Moon is Illuminated
Apr 4
Waxing Crescent
Apr 7
First Quarter
Apr 15
Full
Apr 22
Last Quarter
Apr 29
New

Hourly Weather History & Observations

Time (EEST) Temp. Windchill Dew Point Humidity Pressure Visibility Wind Dir Wind Speed Gust Speed Precip Events Conditions
12:00 AM 23 °F - 22 °F 95%  in 6 mi NE 6.9 mph - -   Overcast
12:50 AM 23.0 °F 18.4 °F 21.2 °F 93% 30.01 in 6.2 mi ESE 3.5 mph - N/A   Overcast
1:50 AM 21.2 °F - 21.2 °F 100% 30.01 in 6.2 mi Calm Calm - N/A   Overcast
3:00 AM 16 °F - 16 °F 100%  in 6 mi SSE 1.2 mph - -   Overcast
3:50 AM 14.0 °F - 14.0 °F 100% 30.01 in 6.2 mi South 1.2 mph - N/A   Overcast
4:50 AM 14.0 °F - 14.0 °F 100% 30.01 in 6.2 mi Variable 1.2 mph - N/A   Overcast
6:00 AM 13 °F - 13 °F 99%  in 6 mi Calm Calm - -   Overcast
6:50 AM 15.8 °F - 14.0 °F 93% 30.04 in 6.2 mi Variable 2.3 mph - N/A   Overcast
7:50 AM 15.8 °F - 15.8 °F 100% 30.04 in 2.5 mi Variable 2.3 mph - N/A   Overcast
8:04 AM 15.8 °F - 15.8 °F 100% 30.04 in 0.4 mi Variable 2.3 mph - N/A Fog Light Freezing Fog
8:50 AM 21.2 °F - 21.2 °F 100% 30.06 in - Calm Calm - N/A   Clear
9:00 AM 21 °F - 21 °F 99%  in 6 mi Calm Calm - - Fog Light Fog
9:50 AM 26.6 °F - 26.6 °F 100% 30.06 in 6.2 mi Calm Calm - N/A   Scattered Clouds
10:50 AM 32.0 °F 25.6 °F 24.8 °F 75% 30.06 in 6.2 mi South 6.9 mph - N/A   Scattered Clouds
11:50 AM 37.4 °F 30.3 °F 17.6 °F 45% 30.04 in 6.2 mi SSW 10.4 mph - N/A   Partly Cloudy
12:00 PM 36 °F - 15 °F 29%  in 6 mi SSW 10.4 mph - -   Scattered Clouds
12:50 PM 23.0 °F 12.4 °F 10.4 °F 59% 30.04 in 6.2 mi SSW 10.4 mph - N/A   Partly Cloudy
1:50 PM 42.8 °F 36.2 °F 15.8 °F 34% 30.04 in 6.2 mi SSW 12.7 mph - N/A   Partly Cloudy
2:50 PM 44.6 °F 37.4 °F 15.8 °F 31% 30.01 in - SSW 16.1 mph - N/A   Clear
3:00 PM 44 °F - 15 °F 19%  in 6 mi SSW 16.1 mph - -  
3:50 PM 44.6 °F 38.1 °F 14.0 °F 29% 30.01 in - South 13.8 mph - N/A   Clear
4:50 PM 46.4 °F - 3.2 °F 17% 30.01 in - Calm Calm - N/A   Clear
5:50 PM 44.6 °F 39.7 °F 5.0 °F 20% 30.01 in - WNW 9.2 mph - N/A   Clear
6:00 PM 45 °F - -1 °F 6%  in 6 mi WNW 10.4 mph - -  
6:50 PM 37.4 °F 34.9 °F 8.6 °F 30% 29.95 in - North 3.5 mph - N/A   Clear
7:50 PM 33.8 °F - 15.8 °F 48% 30.06 in - NNE 2.3 mph - N/A   Clear
8:50 PM 28.4 °F - 19.4 °F 69% 30.06 in - Calm Calm - N/A   Clear
9:00 PM 28 °F - 19 °F 57%  in 6 mi East 5.8 mph - -  
9:50 PM 28.4 °F 19.7 °F 19.4 °F 69% 30.06 in - SE 9.2 mph - N/A   Clear
10:50 PM 26.6 °F - 15.8 °F 64% 30.06 in - Calm Calm - N/A   Clear